Time,TemperatureF,DewpointF,PressureIn,WindDirection,WindDirectionDegrees,WindSpeedMPH,WindSpeedGustMPH,Humidity,HourlyPrecipIn,Conditions,Clouds,dailyrainin,SoftwareType,DateUTC
2013-03-29 00:02:00,47.0,43.0,30.08,West,273,0.0,-999.0,86,-99.99,,,-99.99,,2013-03-29 07:02:00,
2013-03-29 00:12:00,47.0,42.0,30.09,West,263,5.0,-999.0,81,-99.99,,,-99.99,,2013-03-29 07:12:00,
2013-03-29 00:21:00,48.0,43.0,30.09,West,259,0.0,-999.0,82,-99.99,,,-99.99,,2013-03-29 07:21:00,
2013-03-29 00:32:00,48.0,43.0,30.09,WSW,256,0.0,-999.0,84,-99.99,,,-99.99,,2013-03-29 07:32:00,
2013-03-29 00:42:00,47.0,44.0,30.09,WSW,257,0.0,-999.0,87,-99.99,,,-99.99,,2013-03-29 07:42:00,
2013-03-29 00:52:00,47.0,44.0,30.09,WSW,257,0.0,-999.0,87,-99.99,,,-99.99,,2013-03-29 07:52:00,
2013-03-29 01:01:00,46.0,43.0,30.09,WSW,257,0.0,-999.0,89,-99.99,,,-99.99,,2013-03-29 08:01:00,
2013-03-29 01:12:00,46.0,43.0,30.09,WSW,257,0.0,-999.0,89,-99.99,,,-99.99,,2013-03-29 08:12:00,
2013-03-29 01:22:00,46.0,43.0,30.09,WSW,257,0.0,-999.0,89,-99.99,,,-99.99,,2013-03-29 08:22:00,
2013-03-29 01:32:00,46.0,43.0,30.09,WSW,256,0.0,-999.0,89,-99.99,,,-99.99,,2013-03-29 08:32:00,
2013-03-29 01:42:00,45.0,42.0,30.09,WSW,256,0.0,-999.0,90,-99.99,,,-99.99,,2013-03-29 08:42:00,
2013-03-29 01:51:00,45.0,42.0,30.10,WSW,256,0.0,-999.0,89,-99.99,,,-99.99,,2013-03-29 08:51:00,
2013-03-29 02:02:00,45.0,42.0,30.10,WSW,257,0.0,-999.0,91,-99.99,,,-99.99,,2013-03-29 09:02:00,
2013-03-29 02:12:00,45.0,42.0,30.10,WSW,256,0.0,-999.0,90,-99.99,,,-99.99,,2013-03-29 09:12:00,
2013-03-29 02:22:00,45.0,42.0,30.10,WSW,256,0.0,-999.0,90,-99.99,,,-99.99,,2013-03-29 09:22:00,
2013-03-29 02:32:00,45.0,42.0,30.10,WSW,257,0.0,-999.0,90,-99.99,,,-99.99,,2013-03-29 09:32:00,
2013-03-29 02:42:00,45.0,42.0,30.10,WSW,256,2.0,-999.0,91,-99.99,,,-99.99,,2013-03-29 09:42:00,
2013-03-29 02:52:00,45.0,43.0,30.10,WSW,257,3.0,-999.0,90,-99.99,,,-99.99,,2013-03-29 09:52:00,
2013-03-29 03:02:00,47.0,42.0,30.11,WSW,242,9.0,-999.0,85,-99.99,,,-99.99,,2013-03-29 10:02:00,
2013-03-29 03:12:00,47.0,42.0,30.11,WSW,246,2.0,-999.0,83,-99.99,,,-99.99,,2013-03-29 10:12:00,
2013-03-29 03:22:00,46.0,42.0,30.11,WSW,247,2.0,-999.0,85,-99.99,,,-99.99,,2013-03-29 10:22:00,
2013-03-29 03:33:00,46.0,42.0,30.11,WSW,247,0.0,-999.0,85,-99.99,,,-99.99,,2013-03-29 10:33:00,
2013-03-29 03:42:00,46.0,42.0,30.11,WSW,247,0.0,-999.0,86,-99.99,,,-99.99,,2013-03-29 10:42:00,
2013-03-29 03:52:00,46.0,42.0,30.11,WSW,247,0.0,-999.0,87,-99.99,,,-99.99,,2013-03-29 10:52:00,
2013-03-29 04:02:00,45.0,42.0,30.11,WSW,247,0.0,-999.0,88,-99.99,,,-99.99,,2013-03-29 11:02:00,
2013-03-29 04:12:00,45.0,42.0,30.11,WSW,246,0.0,-999.0,87,-99.99,,,-99.99,,2013-03-29 11:12:00,
2013-03-29 04:23:00,45.0,42.0,30.11,WSW,247,1.0,-999.0,88,-99.99,,,-99.99,,2013-03-29 11:23:00,
2013-03-29 04:32:00,45.0,42.0,30.11,WSW,247,0.0,-999.0,88,-99.99,,,-99.99,,2013-03-29 11:32:00,
2013-03-29 04:42:00,45.0,42.0,30.12,WSW,246,2.0,-999.0,88,-99.99,,,-99.99,,2013-03-29 11:42:00,
2013-03-29 04:52:00,45.0,42.0,30.12,WSW,247,0.0,-999.0,88,-99.99,,,-99.99,,2013-03-29 11:52:00,
2013-03-29 05:02:00,45.0,42.0,30.12,WSW,247,0.0,-999.0,88,-99.99,,,-99.99,,2013-03-29 12:02:00,
2013-03-29 05:12:00,45.0,42.0,30.12,WSW,247,0.0,-999.0,90,-99.99,,,-99.99,,2013-03-29 12:12:00,
2013-03-29 05:22:00,44.0,42.0,30.12,WSW,247,0.0,-999.0,90,-99.99,,,-99.99,,2013-03-29 12:22:00,
2013-03-29 05:32:00,44.0,42.0,30.12,WSW,246,0.0,-999.0,90,-99.99,,,-99.99,,2013-03-29 12:32:00,
2013-03-29 05:42:00,44.0,42.0,30.12,WSW,247,0.0,-999.0,90,-99.99,,,-99.99,,2013-03-29 12:42:00,
2013-03-29 05:51:00,44.0,41.0,30.13,WSW,247,0.0,-999.0,89,-99.99,,,-99.99,,2013-03-29 12:51:00,
2013-03-29 06:02:00,44.0,42.0,30.13,WSW,247,0.0,-999.0,90,-99.99,,,-99.99,,2013-03-29 13:02:00,
2013-03-29 06:12:00,44.0,42.0,30.13,WSW,247,0.0,-999.0,90,-99.99,,,-99.99,,2013-03-29 13:12:00,
2013-03-29 06:22:00,44.0,42.0,30.13,WSW,246,0.0,-999.0,90,-99.99,,,-99.99,,2013-03-29 13:22:00,
2013-03-29 06:32:00,44.0,42.0,30.13,WSW,247,0.0,-999.0,90,-99.99,,,-99.99,,2013-03-29 13:32:00,
2013-03-29 06:42:00,44.0,42.0,30.14,WSW,246,0.0,-999.0,90,-99.99,,,-99.99,,2013-03-29 13:42:00,
2013-03-29 06:52:00,44.0,41.0,30.14,WSW,247,0.0,-999.0,90,-99.99,,,-99.99,,2013-03-29 13:52:00,
2013-03-29 07:02:00,44.0,42.0,30.15,WSW,247,0.0,-999.0,91,-99.99,,,-99.99,,2013-03-29 14:02:00,
2013-03-29 07:12:00,44.0,42.0,30.15,WSW,246,0.0,-999.0,90,-99.99,,,-99.99,,2013-03-29 14:12:00,
2013-03-29 07:22:00,44.0,42.0,30.16,WSW,246,0.0,-999.0,90,-99.99,,,-99.99,,2013-03-29 14:22:00,
2013-03-29 07:32:00,44.0,42.0,30.16,WSW,247,0.0,-999.0,91,-99.99,,,-99.99,,2013-03-29 14:32:00,
2013-03-29 07:42:00,44.0,42.0,30.16,WSW,246,0.0,-999.0,91,-99.99,,,-99.99,,2013-03-29 14:42:00,
2013-03-29 07:52:00,44.0,42.0,30.16,WSW,247,0.0,-999.0,92,-99.99,,,-99.99,,2013-03-29 14:52:00,
2013-03-29 08:02:00,45.0,42.0,30.16,WSW,247,0.0,-999.0,92,-99.99,,,-99.99,,2013-03-29 15:02:00,
2013-03-29 08:12:00,45.0,43.0,30.17,WSW,247,0.0,-999.0,92,-99.99,,,-99.99,,2013-03-29 15:12:00,
2013-03-29 08:22:00,45.0,43.0,30.17,WSW,247,0.0,-999.0,92,-99.99,,,-99.99,,2013-03-29 15:22:00,
2013-03-29 08:33:00,45.0,43.0,30.17,WSW,247,0.0,-999.0,92,-99.99,,,-99.99,,2013-03-29 15:33:00,
2013-03-29 08:42:00,45.0,43.0,30.17,WSW,246,0.0,-999.0,92,-99.99,,,-99.99,,2013-03-29 15:42:00,
2013-03-29 08:52:00,45.0,43.0,30.16,WSW,246,0.0,-999.0,92,-99.99,,,-99.99,,2013-03-29 15:52:00,
2013-03-29 09:03:00,45.0,42.0,30.17,WSW,247,1.0,-999.0,90,-99.99,,,-99.99,,2013-03-29 16:03:00,
2013-03-29 09:12:00,45.0,43.0,30.17,WSW,247,0.0,-999.0,90,-99.99,,,-99.99,,2013-03-29 16:12:00,
2013-03-29 09:23:00,45.0,43.0,30.17,WSW,247,0.0,-999.0,90,-99.99,,,-99.99,,2013-03-29 16:23:00,
2013-03-29 09:32:00,45.0,43.0,30.17,WSW,247,0.0,-999.0,92,-99.99,,,-99.99,,2013-03-29 16:32:00,
2013-03-29 09:42:00,45.0,43.0,30.18,WSW,247,0.0,-999.0,90,-99.99,,,-99.99,,2013-03-29 16:42:00,
2013-03-29 09:52:00,45.0,43.0,30.18,WSW,247,0.0,-999.0,90,-99.99,,,-99.99,,2013-03-29 16:52:00,
2013-03-29 10:02:00,45.0,43.0,30.18,WSW,247,0.0,-999.0,90,-99.99,,,-99.99,,2013-03-29 17:02:00,
2013-03-29 10:12:00,46.0,43.0,30.18,WSW,246,0.0,-999.0,89,-99.99,,,-99.99,,2013-03-29 17:12:00,
2013-03-29 10:22:00,46.0,43.0,30.18,WSW,247,0.0,-999.0,88,-99.99,,,-99.99,,2013-03-29 17:22:00,
2013-03-29 10:33:00,47.0,44.0,30.18,WSW,247,0.0,-999.0,90,-99.99,,,-99.99,,2013-03-29 17:33:00,
2013-03-29 10:42:00,48.0,45.0,30.18,WSW,246,0.0,-999.0,89,-99.99,,,-99.99,,2013-03-29 17:42:00,
2013-03-29 10:52:00,49.0,46.0,30.18,WSW,247,0.0,-999.0,89,-99.99,,,-99.99,,2013-03-29 17:52:00,
2013-03-29 11:02:00,50.0,46.0,30.18,WSW,247,2.0,-999.0,85,-99.99,,,-99.99,,2013-03-29 18:02:00,
2013-03-29 11:12:00,51.0,45.0,30.18,WSW,246,1.0,-999.0,81,-99.99,,,-99.99,,2013-03-29 18:12:00,
2013-03-29 11:22:00,51.0,44.0,30.18,WSW,247,3.0,-999.0,78,-99.99,,,-99.99,,2013-03-29 18:22:00,
2013-03-29 11:32:00,51.0,44.0,30.19,WSW,248,0.0,-999.0,77,-99.99,,,-99.99,,2013-03-29 18:32:00,
2013-03-29 11:42:00,51.0,44.0,30.18,WSW,252,2.0,-999.0,76,-99.99,,,-99.99,,2013-03-29 18:42:00,
2013-03-29 11:52:00,52.0,44.0,30.18,West,272,3.0,-999.0,76,-99.99,,,-99.99,,2013-03-29 18:52:00,
2013-03-29 12:02:00,52.0,44.0,30.19,NW,310,8.0,-999.0,73,-99.99,,,-99.99,,2013-03-29 19:02:00,
2013-03-29 12:12:00,52.0,44.0,30.18,WNW,292,7.0,-999.0,74,-99.99,,,-99.99,,2013-03-29 19:12:00,
2013-03-29 12:22:00,52.0,44.0,30.18,West,275,7.0,-999.0,74,-99.99,,,-99.99,,2013-03-29 19:22:00,
2013-03-29 12:32:00,52.0,44.0,30.18,WNW,286,5.0,-999.0,73,-99.99,,,-99.99,,2013-03-29 19:32:00,
2013-03-29 12:42:00,53.0,44.0,30.18,WNW,293,6.0,-999.0,70,-99.99,,,-99.99,,2013-03-29 19:42:00,
2013-03-29 12:52:00,54.0,44.0,30.18,WNW,289,5.0,-999.0,70,-99.99,,,-99.99,,2013-03-29 19:52:00,
2013-03-29 13:02:00,54.0,45.0,30.17,North,1,6.0,-999.0,71,-99.99,,,-99.99,,2013-03-29 20:02:00,
2013-03-29 13:12:00,56.0,46.0,30.17,NE,35,2.0,-999.0,69,-99.99,,,-99.99,,2013-03-29 20:12:00,
2013-03-29 13:22:00,55.0,46.0,30.17,NNE,29,7.0,-999.0,70,-99.99,,,-99.99,,2013-03-29 20:22:00,
2013-03-29 13:32:00,55.0,46.0,30.17,NNE,28,0.0,-999.0,72,-99.99,,,-99.99,,2013-03-29 20:32:00,
2013-03-29 13:42:00,55.0,45.0,30.17,NNE,31,2.0,-999.0,70,-99.99,,,-99.99,,2013-03-29 20:42:00,
2013-03-29 13:51:00,55.0,46.0,30.17,NNE,30,0.0,-999.0,71,-99.99,,,-99.99,,2013-03-29 20:51:00,
2013-03-29 14:02:00,55.0,46.0,30.17,NNE,30,0.0,-999.0,71,-99.99,,,-99.99,,2013-03-29 21:02:00,
2013-03-29 14:12:00,57.0,45.0,30.16,NE,54,2.0,-999.0,63,-99.99,,,-99.99,,2013-03-29 21:12:00,
2013-03-29 14:22:00,57.0,44.0,30.16,SSE,148,8.0,-999.0,61,-99.99,,,-99.99,,2013-03-29 21:22:00,
2013-03-29 14:32:00,56.0,44.0,30.15,South,177,2.0,-999.0,64,-99.99,,,-99.99,,2013-03-29 21:32:00,
2013-03-29 14:42:00,56.0,43.0,30.16,SSE,159,2.0,-999.0,61,-99.99,,,-99.99,,2013-03-29 21:42:00,
2013-03-29 14:52:00,56.0,43.0,30.15,SSE,167,2.0,-999.0,61,-99.99,,,-99.99,,2013-03-29 21:52:00,
2013-03-29 15:02:00,56.0,43.0,30.15,SSE,167,2.0,-999.0,61,-99.99,,,-99.99,,2013-03-29 22:02:00,
2013-03-29 15:12:00,58.0,44.0,30.14,SE,131,3.0,-999.0,59,-99.99,,,-99.99,,2013-03-29 22:12:00,
2013-03-29 15:22:00,58.0,45.0,30.14,SE,135,2.0,-999.0,60,-99.99,,,-99.99,,2013-03-29 22:22:00,
2013-03-29 15:33:00,58.0,45.0,30.14,SE,135,2.0,-999.0,60,-99.99,,,-99.99,,2013-03-29 22:33:00,
2013-03-29 15:42:00,58.0,44.0,30.14,NE,53,0.0,-999.0,59,-99.99,,,-99.99,,2013-03-29 22:42:00,
2013-03-29 15:52:00,58.0,44.0,30.14,ENE,59,1.0,-999.0,59,-99.99,,,-99.99,,2013-03-29 22:52:00,
2013-03-29 16:02:00,58.0,43.0,30.14,East,83,5.0,-999.0,56,-99.99,,,-99.99,,2013-03-29 23:02:00,
2013-03-29 16:12:00,58.0,43.0,30.13,East,88,2.0,-999.0,57,-99.99,,,-99.99,,2013-03-29 23:12:00,
2013-03-29 16:22:00,58.0,43.0,30.13,East,80,2.0,-999.0,57,-99.99,,,-99.99,,2013-03-29 23:22:00,
2013-03-29 16:32:00,58.0,42.0,30.14,ENE,67,2.0,-999.0,55,-99.99,,,-99.99,,2013-03-29 23:32:00,
2013-03-29 16:42:00,58.0,43.0,30.13,ENE,65,5.0,-999.0,57,-99.99,,,-99.99,,2013-03-29 23:42:00,
2013-03-29 16:52:00,58.0,43.0,30.14,ENE,64,1.0,-999.0,55,-99.99,,,-99.99,,2013-03-29 23:52:00,
2013-03-29 17:02:00,59.0,43.0,30.14,ENE,63,2.0,-999.0,55,-99.99,,,-99.99,,2013-03-30 00:02:00,
2013-03-29 17:11:00,59.0,42.0,30.13,ENE,63,1.0,-999.0,54,-99.99,,,-99.99,,2013-03-30 00:11:00,
2013-03-29 17:22:00,59.0,42.0,30.13,ENE,63,1.0,-999.0,54,-99.99,,,-99.99,,2013-03-30 00:22:00,
2013-03-29 17:32:00,59.0,43.0,30.13,ENE,62,2.0,-999.0,55,-99.99,,,-99.99,,2013-03-30 00:32:00,
2013-03-29 17:42:00,59.0,43.0,30.14,ENE,61,1.0,-999.0,55,-99.99,,,-99.99,,2013-03-30 00:42:00,
2013-03-29 17:52:00,59.0,44.0,30.14,ENE,61,0.0,-999.0,56,-99.99,,,-99.99,,2013-03-30 00:52:00,
2013-03-29 18:02:00,60.0,43.0,30.14,NE,46,5.0,-999.0,53,-99.99,,,-99.99,,2013-03-30 01:02:00,
2013-03-29 18:12:00,60.0,43.0,30.14,NE,38,5.0,-999.0,53,-99.99,,,-99.99,,2013-03-30 01:12:00,
2013-03-29 18:22:00,59.0,44.0,30.14,NE,37,2.0,-999.0,56,-99.99,,,-99.99,,2013-03-30 01:22:00,
2013-03-29 18:32:00,59.0,43.0,30.14,NE,37,0.0,-999.0,55,-99.99,,,-99.99,,2013-03-30 01:32:00,
2013-03-29 18:42:00,58.0,43.0,30.14,NE,38,0.0,-999.0,55,-99.99,,,-99.99,,2013-03-30 01:42:00,
2013-03-29 18:52:00,58.0,43.0,30.14,NE,37,2.0,-999.0,57,-99.99,,,-99.99,,2013-03-30 01:52:00,
2013-03-29 19:02:00,58.0,43.0,30.14,NE,37,2.0,-999.0,57,-99.99,,,-99.99,,2013-03-30 02:02:00,
2013-03-29 19:12:00,57.0,44.0,30.14,NE,36,2.0,-999.0,61,-99.99,,,-99.99,,2013-03-30 02:12:00,
2013-03-29 19:22:00,57.0,43.0,30.14,NE,36,0.0,-999.0,60,-99.99,,,-99.99,,2013-03-30 02:22:00,
2013-03-29 19:32:00,56.0,43.0,30.14,NE,36,0.0,-999.0,62,-99.99,,,-99.99,,2013-03-30 02:32:00,
2013-03-29 19:42:00,55.0,43.0,30.14,NE,36,0.0,-999.0,63,-99.99,,,-99.99,,2013-03-30 02:42:00,
2013-03-29 19:52:00,55.0,43.0,30.15,NE,36,1.0,-999.0,64,-99.99,,,-99.99,,2013-03-30 02:52:00,
2013-03-29 20:02:00,54.0,42.0,30.14,NNE,33,0.0,-999.0,64,-99.99,,,-99.99,,2013-03-30 03:02:00,
2013-03-29 20:12:00,53.0,42.0,30.15,NNE,33,1.0,-999.0,67,-99.99,,,-99.99,,2013-03-30 03:12:00,
2013-03-29 20:21:00,52.0,42.0,30.15,NNE,33,1.0,-999.0,66,-99.99,,,-99.99,,2013-03-30 03:21:00,
2013-03-29 20:32:00,53.0,41.0,30.15,NNE,19,2.0,-999.0,65,-99.99,,,-99.99,,2013-03-30 03:32:00,
2013-03-29 20:43:00,52.0,42.0,30.15,NNE,14,0.0,-999.0,66,-99.99,,,-99.99,,2013-03-30 03:43:00,
2013-03-29 20:52:00,52.0,42.0,30.16,NNE,14,0.0,-999.0,68,-99.99,,,-99.99,,2013-03-30 03:52:00,
2013-03-29 21:02:00,50.0,41.0,30.16,NNE,14,0.0,-999.0,70,-99.99,,,-99.99,,2013-03-30 04:02:00,
2013-03-29 21:12:00,49.0,41.0,30.16,NNE,14,0.0,-999.0,72,-99.99,,,-99.99,,2013-03-30 04:12:00,
2013-03-29 21:22:00,49.0,40.0,30.16,NNE,14,0.0,-999.0,72,-99.99,,,-99.99,,2013-03-30 04:22:00,
2013-03-29 21:32:00,49.0,40.0,30.17,NNE,14,0.0,-999.0,72,-99.99,,,-99.99,,2013-03-30 04:32:00,
2013-03-29 21:42:00,48.0,40.0,30.17,NNE,14,0.0,-999.0,73,-99.99,,,-99.99,,2013-03-30 04:42:00,
2013-03-29 21:52:00,48.0,40.0,30.18,NNE,14,0.0,-999.0,73,-99.99,,,-99.99,,2013-03-30 04:52:00,
2013-03-29 22:02:00,48.0,40.0,30.18,NNE,14,0.0,-999.0,74,-99.99,,,-99.99,,2013-03-30 05:02:00,
2013-03-29 22:12:00,47.0,40.0,30.18,NNE,14,0.0,-999.0,76,-99.99,,,-99.99,,2013-03-30 05:12:00,
2013-03-29 22:22:00,47.0,40.0,30.18,NNE,14,0.0,-999.0,75,-99.99,,,-99.99,,2013-03-30 05:22:00,
2013-03-29 22:32:00,47.0,40.0,30.18,NNE,14,0.0,-999.0,76,-99.99,,,-99.99,,2013-03-30 05:32:00,
2013-03-29 22:42:00,47.0,40.0,30.18,NNE,14,0.0,-999.0,76,-99.99,,,-99.99,,2013-03-30 05:42:00,
2013-03-29 22:51:00,47.0,40.0,30.18,NNE,14,0.0,-999.0,76,-99.99,,,-99.99,,2013-03-30 05:51:00,
2013-03-29 23:01:00,47.0,40.0,30.18,NNE,14,0.0,-999.0,76,-99.99,,,-99.99,,2013-03-30 06:01:00,
2013-03-29 23:11:00,46.0,41.0,30.18,NNE,14,0.0,-999.0,80,-99.99,,,-99.99,,2013-03-30 06:11:00,
2013-03-29 23:22:00,47.0,40.0,30.18,NNE,14,0.0,-999.0,78,-99.99,,,-99.99,,2013-03-30 06:22:00,
2013-03-29 23:32:00,47.0,41.0,30.18,NNE,14,0.0,-999.0,78,-99.99,,,-99.99,,2013-03-30 06:32:00,
2013-03-29 23:42:00,47.0,41.0,30.18,NNE,14,0.0,-999.0,79,-99.99,,,-99.99,,2013-03-30 06:42:00,
2013-03-29 23:52:00,47.0,41.0,30.18,NNE,14,0.0,-999.0,79,-99.99,,,-99.99,,2013-03-30 06:52:00,